BOX722 EDDP-VIDP

Flight info

Callsign BOX722
Flight time N/A
Altitude 33000
Route DRN2N DRN Z21 OMELO DCT EVIKU DCT PEPIK DCT KEROP DCT ETIDA DCT EKSOL DCT UDROS UM859 KARDE UN644 ROLIN N644 ODILI DCT LAGAS M747 SUBUT T923 ERLEV M11 AMOKU/N0478F350 M11 RODAR A909 BABUM A477 POGON/K0883F350 T388 BUPOR Y92 OGNOB Z514 USETU Z407 BUTRA L181 DAROW Z767 VAJEN Z407 FIRUZ/N0475F350 P500 MOTMO/N0478F360 P500 GERRY/N0475F350 P500 ATROL/N0478F360 P500 PS/N0478F350 T400 INDEK J121 LA T400 SULOM A466 ELKUX ELKUX7E
Aircraft B77L/H-SDE1E2E3FGHIJ2J3J4J5M1RWXYZ/LB1D1

Departure

Time N/A
Airport Leipzig/Halle Airport (EDDP)

Arrival

Time 2026-05-03 20:43
Airport Indira Gandhi International Airport (VIDP)
Time Latitude Longitude Altitude Speed Heading
2026-05-03 20:21 29.84160 75.52141 29471 ft 426 kts 151°
2026-05-03 20:21 29.81814 75.54232 28932 ft 427 kts 144°
2026-05-03 20:21 29.79745 75.56698 28442 ft 427 kts 137°
2026-05-03 20:22 29.77797 75.59260 27959 ft 424 kts 136°
2026-05-03 20:22 29.75875 75.61807 27483 ft 420 kts 136°
2026-05-03 20:22 29.73965 75.64332 27025 ft 416 kts 136°
2026-05-03 20:22 29.72067 75.66825 26564 ft 413 kts 136°
2026-05-03 20:23 29.70180 75.69289 26116 ft 410 kts 136°
2026-05-03 20:23 29.68320 75.71707 25675 ft 407 kts 136°
2026-05-03 20:23 29.66448 75.74134 25232 ft 405 kts 136°
2026-05-03 20:23 29.64584 75.76546 24786 ft 403 kts 136°
2026-05-03 20:24 29.62726 75.78946 24350 ft 401 kts 136°
2026-05-03 20:24 29.60877 75.81335 23910 ft 399 kts 136°
2026-05-03 20:24 29.59031 75.83718 23475 ft 399 kts 136°
2026-05-03 20:24 29.57188 75.86095 22979 ft 398 kts 136°
2026-05-03 20:25 29.55349 75.88467 22497 ft 396 kts 136°
2026-05-03 20:25 29.53518 75.90827 22051 ft 394 kts 135°
2026-05-03 20:25 29.51701 75.93169 21618 ft 392 kts 135°
2026-05-03 20:25 29.49895 75.95496 21188 ft 389 kts 135°
2026-05-03 20:26 29.48099 75.97807 20764 ft 387 kts 135°
2026-05-03 20:26 29.46310 76.00108 20341 ft 385 kts 135°
2026-05-03 20:26 29.44536 76.02388 19908 ft 383 kts 135°
2026-05-03 20:26 29.42764 76.04665 19490 ft 381 kts 135°
2026-05-03 20:27 29.41000 76.06930 19059 ft 380 kts 135°
2026-05-03 20:27 29.39245 76.09182 18649 ft 378 kts 135°
2026-05-03 20:27 29.37490 76.11432 18214 ft 377 kts 135°
2026-05-03 20:27 29.35723 76.13649 17713 ft 377 kts 137°
2026-05-03 20:28 29.33848 76.15771 17182 ft 381 kts 140°
2026-05-03 20:28 29.31906 76.17861 16691 ft 385 kts 140°
2026-05-03 20:28 29.29938 76.19949 16308 ft 385 kts 140°
2026-05-03 20:28 29.27982 76.22029 16028 ft 383 kts 140°
2026-05-03 20:29 29.26047 76.24101 15751 ft 381 kts 140°
2026-05-03 20:29 29.24117 76.26176 15451 ft 380 kts 139°
2026-05-03 20:29 29.22197 76.28249 15136 ft 379 kts 139°
2026-05-03 20:29 29.20282 76.30318 14819 ft 379 kts 139°
2026-05-03 20:30 29.18370 76.32387 14521 ft 378 kts 139°
2026-05-03 20:30 29.16460 76.34454 14224 ft 377 kts 139°
2026-05-03 20:30 29.14558 76.36513 13907 ft 376 kts 139°
2026-05-03 20:30 29.12666 76.38559 13502 ft 374 kts 139°
2026-05-03 20:31 29.10780 76.40598 13037 ft 372 kts 139°
2026-05-03 20:31 29.08907 76.42622 12598 ft 369 kts 139°
2026-05-03 20:31 29.07047 76.44631 12166 ft 367 kts 139°
2026-05-03 20:31 29.05200 76.46624 11737 ft 364 kts 139°
2026-05-03 20:32 29.03366 76.48602 11311 ft 361 kts 139°
2026-05-03 20:32 29.01542 76.50568 10906 ft 359 kts 139°
2026-05-03 20:32 28.99735 76.52515 10512 ft 356 kts 139°
2026-05-03 20:32 28.97960 76.54428 10347 ft 345 kts 139°
2026-05-03 20:33 28.96242 76.56280 10185 ft 334 kts 139°
2026-05-03 20:33 28.94578 76.58071 10042 ft 323 kts 139°
2026-05-03 20:33 28.92972 76.59799 9897 ft 312 kts 139°
2026-05-03 20:33 28.91416 76.61473 9782 ft 301 kts 139°
2026-05-03 20:34 28.89901 76.63100 9455 ft 298 kts 140°
2026-05-03 20:34 28.88420 76.64689 9130 ft 294 kts 139°
2026-05-03 20:34 28.86920 76.66298 8795 ft 291 kts 140°
2026-05-03 20:34 28.85460 76.67865 8482 ft 286 kts 140°
2026-05-03 20:35 28.84017 76.69413 8168 ft 282 kts 140°
2026-05-03 20:35 28.82599 76.70932 7856 ft 278 kts 140°
2026-05-03 20:35 28.81199 76.72433 7557 ft 275 kts 141°
2026-05-03 20:35 28.79831 76.73898 7247 ft 270 kts 140°
2026-05-03 20:36 28.78474 76.75352 6945 ft 266 kts 141°
2026-05-03 20:36 28.77136 76.76785 6662 ft 262 kts 140°
2026-05-03 20:36 28.75815 76.78199 6368 ft 258 kts 141°
2026-05-03 20:36 28.74515 76.79589 6081 ft 254 kts 141°
2026-05-03 20:37 28.73239 76.80954 5785 ft 250 kts 141°
2026-05-03 20:37 28.71985 76.82294 5498 ft 245 kts 140°
2026-05-03 20:37 28.70758 76.83606 5239 ft 240 kts 141°
2026-05-03 20:37 28.69552 76.84894 5073 ft 237 kts 140°
2026-05-03 20:38 28.68327 76.86200 4864 ft 246 kts 140°
2026-05-03 20:38 28.67067 76.87542 4601 ft 251 kts 137°
2026-05-03 20:38 28.65783 76.88913 4464 ft 252 kts 137°
2026-05-03 20:38 28.64528 76.90254 4281 ft 237 kts 137°
2026-05-03 20:39 28.63387 76.91472 4053 ft 214 kts 136°
2026-05-03 20:39 28.62353 76.92574 3834 ft 195 kts 136°
2026-05-03 20:39 28.61397 76.93592 3636 ft 183 kts 135°
2026-05-03 20:39 28.60495 76.94552 3422 ft 172 kts 133°
2026-05-03 20:40 28.59643 76.95459 3231 ft 166 kts 134°
2026-05-03 20:40 28.58776 76.96382 3022 ft 176 kts 131°
2026-05-03 20:40 28.57907 76.97383 2763 ft 174 kts 119°
2026-05-03 20:40 28.57559 76.98609 2511 ft 157 kts 98°
2026-05-03 20:41 28.57389 76.99797 2294 ft 146 kts 97°
2026-05-03 20:41 28.57266 77.00883 2131 ft 135 kts 95°
2026-05-03 20:41 28.57202 77.01976 1969 ft 142 kts 92°
2026-05-03 20:41 28.57160 77.03073 1773 ft 134 kts 86°
2026-05-03 20:42 28.57188 77.04102 1580 ft 129 kts 93°
2026-05-03 20:42 28.57128 77.05235 1367 ft 151 kts 89°
2026-05-03 20:42 28.57119 77.06437 1195 ft 155 kts 93°
2026-05-03 20:42 28.57071 77.07703 989 ft 163 kts 91°
2026-05-03 20:43 28.57051 77.09039 787 ft 174 kts 92°
2026-05-03 20:43 28.57021 77.10363 754 ft 152 kts 90°
2026-05-03 20:43 28.57005 77.11205 753 ft 44 kts 91°
2026-05-03 20:43 28.57000 77.11461 752 ft 14 kts 91°
2026-05-03 20:44 28.56996 77.11569 752 ft 14 kts 100°
2026-05-03 20:44 28.56926 77.11628 752 ft 14 kts 172°
2026-05-03 20:44 28.56854 77.11620 752 ft 10 kts 225°
2026-05-03 20:44 28.56844 77.11545 752 ft 10 kts 270°
2026-05-03 20:45 28.56844 77.11467 752 ft 11 kts 271°
2026-05-03 20:45 28.56847 77.11341 752 ft 12 kts 271°
2026-05-03 20:45 28.56847 77.11328 752 ft 5 kts 271°
2026-05-03 20:45 28.56849 77.11236 753 ft 12 kts 272°
2026-05-03 20:46 28.56795 77.11169 753 ft 12 kts 226°
2026-05-03 20:46 28.56770 77.11081 750 ft 8 kts 220°
2026-05-03 20:46 28.56715 77.11070 752 ft 8 kts 162°
2026-05-03 20:46 28.56696 77.11116 751 ft 6 kts 104°
2026-05-03 20:47 28.56693 77.11127 753 ft 0 kts 102°